QPF
0.00 0.00 0.00 0.00 0.00 0.00 0.00 0.00 0.00 0.00 0.00 0.00 0.00 0.00 0.00 0.00 0.00 0.00 0.00 0.00 0.00 0.00 0.00 0.00 0.00 0.00 0.00 0.00 0.00 0.00 0.00 0.00 0.00 0.00 0.00 0.00 0.00 0.00 0.00 0.00 0.00 0.00 0.00 0.00
0.00 0.00 0.00 0.00 0.00 0.00 0.00 0.00 0.00 0.00 0.00 0.00 0.00 0.00 0.00 0.00 0.00 0.00 0.00 0.00 0.00 0.00 0.00 0.00 0.00 0.00 0.00 0.00 0.00 0.00 0.00 0.00 0.00 0.00 0.00 0.00 0.00 0.00 0.00 0.00 0.00 0.00 0.00 0.00
0.00 0.00 0.00 0.00 0.00 0.00 0.00 0.00 0.00 0.00 0.00 0.00 0.00 0.00 0.00 0.00 0.00 0.00 0.00 0.00 0.00 0.00 0.00 0.00 0.00 0.00 0.00 0.00 0.00 0.00 0.00 0.00 0.00 0.00 0.00 0.00 0.00 0.00 0.00 0.00 0.00 0.00 0.00 0.00
0.00 0.00 0.00 0.00 0.00 0.00 0.00 0.00 0.00 0.00 0.00 0.00 0.00 0.00 0.00 0.00 0.00 0.00 0.00 0.00 0.00 0.00 0.00 0.00 0.00 0.00 0.00 0.00 0.00 0.00 0.00 0.00 0.00 0.00 0.00 0.00 0.00 0.00 0.00 0.00 0.00 0.00 0.00 0.00
0.00 0.00 0.00 0.00 0.00 0.00 0.00 0.00 0.00 0.00 0.00 0.00 0.00 0.00 0.00 0.00 0.00 0.00 0.00 0.00 0.00 0.00 0.00 0.00 0.00 0.00 0.00 0.00 0.00 0.00 0.00 0.00 0.00 0.00 0.00 0.00 0.00 0.00 0.00 0.00 0.00 0.00 0.00 0.00
0.00 0.00 0.00 0.00 0.00 0.00 0.00 0.00 0.00 0.00 0.00 0.00 0.00 0.00 0.00 0.00 0.00 0.00 0.00 0.00 0.00 0.00 0.00 0.00 0.00 0.00 0.00 0.00 0.00 0.00 0.00 0.00 0.00 0.00 0.00 0.00 0.00 0.00 0.00 0.00 0.00 0.00 0.00 0.00
0.00 0.00 0.00 0.00 0.00 0.00 0.00 0.00 0.00 0.00 0.00 0.00 0.00 0.00 0.00 0.00 0.00 0.00 0.00 0.00 0.00 0.00 0.00 0.00 0.00 0.00 0.00 0.00 0.00 0.00 0.00 0.00 0.00 0.00 0.00 0.00 0.00 0.00 0.00 0.00 0.00 0.00 0.00 0.00
0.00 0.00 0.00 0.00 0.00 0.00 0.00 0.00 0.00 0.00 0.00 0.00 0.00 0.00 0.00 0.00 0.00 0.00 0.00 0.00 0.00 0.00 0.00 0.00 0.00 0.00 0.00 0.00 0.00 0.00 0.00 0.00 0.00 0.00 0.00 0.00 0.00 0.00 0.00 0.00 0.00 0.00 0.00 0.00
0.00 0.00 0.00 0.00 0.00 0.00 0.00 0.00 0.00 0.00 0.00 0.00 0.00 0.00 0.00 0.00 0.00 0.00 0.00 0.00 0.00 0.00 0.00 0.00 0.00 0.00 0.00 0.00 0.00 0.00 0.00 0.00 0.00 0.00 0.00 0.00 0.00 0.00 0.00 0.00 0.00 0.00 0.00 0.00
0.00 0.00 0.00 0.00 0.00 0.00 0.00 0.00 0.00 0.00 0.00 0.00 0.00 0.00 0.00 0.00 0.00 0.00 0.00 0.00 0.00 0.00 0.00 0.00 0.00 0.00 0.00 0.00 0.00 0.00 0.00 0.00 0.00 0.00 0.00 0.00 0.00 0.00 0.00 0.00 0.00 0.00 0.00 0.00
0.00 0.00 0.00 0.00 0.00 0.00 0.00 0.00 0.00 0.00 0.00 0.00 0.00 0.00 0.00 0.00 0.00 0.00 0.00 0.00 0.00 0.00 0.00 0.00 0.00 0.00 0.00 0.00 0.00 0.00 0.00 0.00 0.00 0.00 0.00 0.00 0.00 0.00 0.00 0.00 0.00 0.00 0.00 0.00
0.00 0.00 0.00 0.00 0.00 0.00 0.00 0.00 0.00 0.00 0.00 0.00 0.00 0.00 0.00 0.00 0.00 0.00 0.00 0.00 0.00 0.00 0.00 0.00 0.00 0.00 0.01 0.00 0.00 0.00 0.00 0.00 0.00 0.00 0.00 0.00 0.00 0.00 0.00 0.00 0.00 0.00 0.00 0.02
0.00 0.00 0.00 0.00 0.00 0.00 0.00 0.00 0.00 0.00 0.00 0.00 0.00 0.00 0.00 0.00 0.00 0.00 0.00 0.00 0.00 0.00 0.01 0.01 0.00 0.01 0.02 0.02 0.01 0.00 0.00 0.00 0.00 0.00 0.00 0.00 0.00 0.00 0.00 0.00 0.00 0.00 0.01 0.02
0.00 0.00 0.00 0.00 0.00 0.00 0.00 0.00 0.00 0.00 0.00 0.00 0.00 0.00 0.00 0.00 0.00 0.00 0.00 0.00 0.00 0.01 0.02 0.02 0.01 0.02 0.09 0.08 0.02 0.01 0.00 0.00 0.00 0.00 0.00 0.00 0.00 0.00 0.00 0.00 0.00 0.01 0.01 0.06
0.00 0.00 0.00 0.00 0.00 0.00 0.00 0.00 0.00 0.00 0.00 0.00 0.00 0.00 0.00 0.00 0.00 0.00 0.00 0.00 0.00 0.02 0.04 0.03 0.04 0.07 0.15 0.04 0.01 0.02 0.02 0.00 0.00 0.00 0.01 0.00 0.00 0.00 0.00 0.00 0.00 0.01 0.03 0.05
0.00 0.00 0.00 0.00 0.00 0.00 0.00 0.00 0.00 0.00 0.00 0.00 0.00 0.00 0.00 0.00 0.00 0.00 0.00 0.00 0.00 0.00 0.01 0.02 0.02 0.03 0.06 0.05 0.01 0.02 0.06 0.12 0.04 0.01 0.01 0.02 0.04 0.03 0.01 0.01 0.01 0.03 0.03 0.04
0.00 0.00 0.00 0.00 0.00 0.00 0.00 0.00 0.00 0.00 0.00 0.00 0.00 0.00 0.00 0.00 0.00 0.00 0.00 0.00 0.00 0.00 0.00 0.00 0.00 0.01 0.02 0.05 0.02 0.01 0.04 0.15 0.18 0.08 0.04 0.06 0.05 0.04 0.03 0.02 0.01 0.04 0.02 0.03
0.00 0.00 0.00 0.00 0.00 0.00 0.00 0.00 0.00 0.00 0.00 0.00 0.00 0.00 0.00 0.00 0.00 0.00 0.00 0.00 0.00 0.00 0.00 0.00 0.00 0.00 0.00 0.02 0.00 0.00 0.02 0.18 0.24 0.15 0.11 0.17 0.10 0.04 0.04 0.01 0.01 0.04 0.01 0.03
0.01 0.00 0.00 0.00 0.00 0.00 0.00 0.00 0.00 0.00 0.00 0.00 0.00 0.00 0.00 0.00 0.00 0.00 0.00 0.00 0.00 0.00 0.00 0.00 0.00 0.00 0.00 0.01 0.02 0.00 0.00 0.11 0.26 0.22 0.16 0.19 0.16 0.05 0.01 0.01 0.02 0.02 0.00 0.00
0.00 0.00 0.00 0.00 0.00 0.00 0.00 0.00 0.00 0.00 0.00 0.00 0.00 0.00 0.00 0.00 0.00 0.00 0.00 0.00 0.00 0.00 0.00 0.00 0.00 0.00 0.00 0.00 0.01 0.00 0.01 0.06 0.21 0.26 0.19 0.19 0.11 0.02 0.00 0.02 0.02 0.01 0.00 0.00
0.00 0.00 0.00 0.00 0.00 0.00 0.00 0.00 0.00 0.00 0.00 0.00 0.00 0.00 0.00 0.00 0.00 0.00 0.00 0.00 0.00 0.00 0.00 0.00 0.00 0.00 0.00 0.00 0.00 0.01 0.00 0.03 0.12 0.17 0.19 0.12 0.06 0.01 0.00 0.00 0.00 0.00 0.00 0.00
0.00 0.00 0.00 0.00 0.00 0.00 0.00 0.00 0.00 0.00 0.00 0.00 0.00 0.00 0.00 0.00 0.00 0.00 0.00 0.00 0.00 0.00 0.00 0.00 0.00 0.00 0.00 0.00 0.02 0.02 0.02 0.12 0.16 0.14 0.15 0.08 0.02 0.00 0.00 0.00 0.00 0.00 0.00 0.00
0.01 0.01 0.00 0.01 0.00 0.00 0.00 0.00 0.00 0.00 0.00 0.00 0.00 0.00 0.00 0.00 0.00 0.00 0.00 0.00 0.00 0.00 0.00 0.00 0.00 0.00 0.00 0.00 0.02 0.06 0.07 0.10 0.16 0.13 0.09 0.04 0.01 0.00 0.00 0.00 0.00 0.00 0.00 0.00
0.00 0.00 0.00 0.00 0.00 0.00 0.00 0.00 0.00 0.00 0.00 0.00 0.00 0.00 0.00 0.00 0.00 0.00 0.00 0.00 0.00 0.00 0.00 0.00 0.00 0.00 0.00 0.00 0.01 0.05 0.12 0.10 0.12 0.09 0.01 0.00 0.00 0.00 0.00 0.00 0.00 0.00 0.00 0.00
0.00 0.00 0.00 0.00 0.00 0.00 0.00 0.00 0.00 0.00 0.00 0.00 0.00 0.00 0.00 0.00 0.00 0.00 0.00 0.00 0.00 0.00 0.00 0.00 0.00 0.00 0.00 0.00 0.02 0.07 0.16 0.11 0.09 0.05 0.01 0.00 0.00 0.00 0.00 0.00 0.00 0.00 0.00 0.00
0.00 0.00 0.00 0.00 0.00 0.01 0.00 0.00 0.00 0.00 0.00 0.00 0.00 0.00 0.00 0.00 0.00 0.00 0.00 0.00 0.00 0.00 0.00 0.00 0.00 0.00 0.00 0.00 0.01 0.11 0.16 0.12 0.07 0.03 0.00 0.00 0.00 0.00 0.00 0.00 0.00 0.00 0.00 0.00
MSLP
1010.08 1010.80 1011.24 1011.32 1011.41 1011.38 1011.59 1011.57 1011.17 1010.38 1009.57 1009.23 1008.61 1007.05 1006.83 1006.47 1006.33 1006.27 1005.83 1005.50 1005.08 1004.68 1003.69 1003.36 1002.97 1002.40 1001.71 1001.83 1002.35 1002.16 1001.63 1001.41 1001.80 1002.74 1003.13 1003.28 1003.43 1003.57 1003.95 1003.91 1004.06 1004.39 1005.03 1005.80
1010.62 1010.84 1010.55 1010.47 1010.67 1011.08 1011.20 1011.25 1011.25 1010.74 1010.14 1009.76 1009.11 1007.32 1006.98 1006.65 1006.44 1006.22 1005.97 1005.94 1005.57 1004.77 1004.07 1003.59 1003.06 1002.41 1001.91 1001.35 1001.54 1001.57 1001.34 1000.86 1000.93 1001.31 1002.12 1001.57 1001.75 1002.37 1002.29 1002.88 1003.48 1003.97 1004.18 1004.84
1010.70 1010.39 1010.08 1010.13 1010.30 1010.52 1010.74 1011.01 1011.25 1011.33 1010.64 1009.93 1009.20 1006.63 1006.78 1006.57 1006.24 1005.92 1006.01 1005.86 1005.56 1005.16 1004.93 1004.21 1003.54 1002.92 1002.24 1001.63 1001.08 1000.85 1000.95 1000.63 1000.19 1000.05 1001.05 1002.14 1001.91 1002.26 1002.70 1002.87 1002.94 1002.90 1003.70 1003.97
1010.39 1009.92 1010.02 1010.11 1010.28 1010.49 1010.79 1011.04 1011.40 1011.60 1011.54 1011.62 1010.75 1008.05 1006.28 1006.34 1006.30 1006.16 1005.80 1005.76 1005.83 1005.59 1005.38 1004.78 1004.00 1003.07 1002.64 1001.90 1001.24 1000.50 1000.42 1000.19 999.65 999.45 1000.00 1001.04 1000.81 1001.22 1001.29 1001.17 1001.73 1002.18 1002.78 1003.15
1010.43 1010.02 1010.00 1010.08 1010.18 1010.53 1011.06 1011.21 1011.72 1012.15 1012.37 1012.22 1011.62 1011.15 1006.13 1006.53 1006.51 1006.41 1006.38 1006.24 1006.14 1006.06 1005.42 1004.90 1004.37 1003.52 1002.56 1002.09 1001.12 1000.15 999.94 999.69 998.95 999.05 998.99 999.89 1000.44 1000.60 1000.79 1001.12 1001.85 1002.42 1002.47 1002.73
1010.49 1010.14 1010.14 1010.16 1010.38 1010.85 1011.40 1012.09 1012.65 1012.99 1013.37 1012.97 1011.82 1011.14 1007.73 1007.13 1006.90 1006.75 1006.73 1006.58 1006.35 1006.06 1005.60 1004.90 1004.04 1003.43 1002.42 1001.54 1001.03 1000.20 999.49 998.82 998.47 998.64 998.61 998.81 999.35 1000.14 1000.84 1001.34 1001.86 1002.11 1002.42 1002.49
1010.89 1010.73 1010.53 1010.51 1010.96 1011.34 1012.09 1013.19 1014.46 1014.52 1014.41 1013.62 1012.27 1011.70 1008.36 1007.46 1006.80 1006.68 1006.76 1006.56 1006.43 1006.03 1005.60 1005.04 1004.31 1003.14 1002.07 1001.12 1000.40 999.66 998.91 998.18 997.96 997.85 997.99 998.20 998.39 998.95 999.96 1000.53 1000.90 1001.51 1002.08 1002.35
1011.87 1011.65 1011.09 1011.02 1011.29 1011.90 1012.52 1013.59 1015.27 1015.25 1015.01 1014.00 1012.56 1010.91 1008.33 1007.04 1006.66 1006.74 1006.97 1006.87 1006.54 1006.06 1005.21 1004.68 1004.04 1003.23 1002.10 1000.87 999.90 999.20 998.15 997.40 996.96 997.05 997.14 997.30 997.58 998.36 999.23 999.75 1000.12 1000.60 1001.01 1001.38
1012.46 1012.01 1011.34 1011.28 1011.59 1012.19 1012.77 1013.66 1014.14 1015.02 1015.06 1014.39 1012.58 1010.07 1008.12 1006.95 1006.96 1006.80 1006.76 1006.63 1006.49 1006.07 1005.47 1004.31 1003.39 1002.74 1002.05 1000.62 999.56 998.74 997.51 996.13 995.96 996.00 996.38 996.33 997.00 997.83 998.61 998.98 999.45 999.88 1000.40 1000.89
1012.85 1012.91 1011.91 1011.73 1011.83 1012.30 1012.68 1013.49 1014.57 1015.68 1015.78 1014.55 1012.15 1010.38 1008.29 1007.27 1007.05 1006.99 1006.94 1006.67 1006.09 1005.67 1005.00 1003.95 1002.92 1002.17 1001.25 1000.20 998.98 997.76 996.17 994.99 994.62 994.76 995.54 995.83 996.32 996.98 997.70 998.55 999.08 999.45 1000.11 1000.70
1013.16 1013.71 1013.08 1012.71 1012.70 1012.83 1013.45 1013.86 1014.77 1015.57 1015.63 1014.78 1012.76 1009.53 1007.63 1007.34 1007.12 1007.21 1006.92 1006.57 1006.29 1005.57 1004.59 1003.48 1002.27 1001.21 1000.48 999.51 998.51 996.61 995.12 994.24 993.94 994.10 994.50 995.42 995.95 996.73 997.45 998.03 998.51 999.05 999.76 1000.40
1013.27 1013.93 1014.02 1013.35 1012.65 1012.42 1012.99 1013.60 1014.21 1015.10 1015.05 1014.65 1013.29 1008.34 1007.70 1007.29 1007.04 1007.08 1006.86 1006.24 1005.87 1005.41 1004.40 1003.30 1002.24 1001.06 1000.39 998.57 996.82 995.76 994.21 993.73 993.32 993.54 993.70 994.63 995.39 996.27 996.97 997.55 998.15 998.86 999.42 999.97
1013.27 1014.19 1014.45 1013.53 1013.12 1012.92 1013.07 1013.32 1013.54 1013.96 1014.05 1013.26 1012.79 1008.23 1007.32 1007.27 1006.92 1006.45 1006.14 1005.73 1005.39 1004.86 1003.87 1003.16 1001.99 1001.18 999.72 997.41 996.49 994.94 993.85 992.93 992.86 993.43 993.47 994.17 995.06 995.79 996.49 997.07 997.63 998.53 999.14 999.71
1012.95 1013.92 1014.44 1014.21 1013.38 1013.36 1013.17 1012.90 1012.99 1013.26 1012.83 1011.85 1010.32 1007.67 1007.28 1006.99 1006.65 1005.90 1005.70 1005.56 1005.04 1004.53 1003.80 1003.27 1002.30 1000.85 999.21 997.22 995.92 994.56 993.34 992.29 992.34 993.10 993.21 993.90 994.48 995.07 995.80 996.63 997.29 998.10 998.66 999.40
1013.06 1013.87 1014.15 1013.50 1012.97 1012.84 1012.42 1011.72 1011.21 1011.45 1010.78 1010.66 1008.47 1008.18 1006.13 1006.35 1005.95 1005.74 1005.40 1005.07 1004.63 1003.73 1003.26 1002.97 1002.14 1000.81 998.98 997.20 996.08 995.32 993.60 992.34 992.63 993.24 993.17 993.81 994.39 994.96 995.79 996.53 997.22 997.79 998.62 999.38
1013.51 1013.84 1013.86 1013.21 1012.84 1012.27 1011.30 1010.35 1009.86 1009.24 1008.88 1008.41 1007.83 1006.41 1005.98 1005.93 1005.95 1005.82 1005.42 1004.90 1004.18 1003.26 1002.94 1002.57 1001.87 1000.50 999.03 998.28 997.50 995.74 993.99 992.95 992.96 993.26 993.46 993.91 994.51 995.08 995.65 996.43 997.12 997.88 998.70 999.31
1013.65 1013.93 1014.10 1012.47 1012.43 1011.70 1010.31 1008.59 1008.18 1007.91 1007.51 1007.45 1007.11 1005.74 1005.63 1005.87 1005.85 1005.56 1004.97 1004.60 1003.79 1003.02 1002.61 1002.18 1002.10 1001.07 1000.79 999.19 997.26 995.40 994.28 993.92 993.19 993.34 993.60 993.79 994.44 995.08 995.82 996.27 997.03 998.07 998.89 999.46
1012.89 1013.53 1013.88 1012.77 1012.35 1011.01 1008.53 1007.77 1007.69 1007.63 1007.19 1006.79 1006.29 1005.30 1005.37 1005.28 1005.12 1005.00 1004.67 1003.91 1003.31 1002.74 1002.16 1001.30 1000.19 999.41 998.46 997.20 995.73 995.14 994.65 994.17 993.86 993.84 993.60 993.79 994.28 995.18 995.75 996.10 997.23 998.15 998.91 999.89
1011.69 1012.84 1012.96 1012.41 1012.29 1010.18 1008.46 1007.96 1007.97 1007.80 1006.73 1006.20 1005.77 1004.87 1004.67 1005.05 1004.96 1004.47 1004.20 1003.31 1002.68 1002.54 1002.16 1001.34 1000.26 999.44 998.34 997.40 996.22 995.38 995.08 994.93 994.72 993.97 994.31 994.06 994.47 994.94 995.67 996.60 997.61 998.68 999.42 1000.17
1011.47 1011.98 1012.58 1012.33 1012.03 1010.81 1009.09 1008.35 1008.14 1008.27 1007.17 1005.75 1005.60 1005.23 1004.83 1004.81 1005.11 1004.03 1003.44 1003.13 1002.16 1001.64 1001.32 1000.91 1000.06 999.34 998.38 997.42 996.49 995.52 995.08 994.61 994.73 994.06 994.40 994.64 994.55 995.20 996.16 996.98 997.99 998.89 999.67 1000.59
1011.62 1011.80 1011.78 1011.77 1011.39 1009.79 1008.34 1008.35 1008.58 1008.42 1006.43 1005.19 1004.99 1004.77 1004.84 1004.80 1004.62 1003.57 1003.28 1002.70 1002.35 1001.97 1001.33 1000.14 999.71 999.30 998.04 997.16 996.09 995.28 994.52 993.94 993.75 994.44 995.54 994.74 995.24 995.68 996.41 997.36 998.35 999.32 1000.21 1001.03
1010.94 1011.17 1011.26 1011.16 1010.65 1009.49 1008.15 1008.67 1008.60 1006.73 1005.44 1005.08 1004.73 1004.12 1004.28 1003.65 1003.55 1003.16 1002.29 1001.78 1001.61 1001.45 1000.54 999.62 999.20 998.65 997.55 997.04 996.29 995.09 994.81 993.67 991.88 993.90 994.90 995.05 994.89 995.98 996.95 997.88 998.99 999.67 1000.40 1001.37
1010.68 1010.56 1010.69 1010.81 1009.26 1008.04 1007.74 1007.29 1006.68 1006.11 1005.51 1004.67 1004.44 1003.93 1003.59 1003.94 1003.58 1002.93 1001.90 1001.44 1001.12 1000.76 1000.16 999.20 998.55 997.81 997.05 996.60 995.95 995.02 994.59 994.05 993.99 993.63 994.43 994.62 995.43 996.41 997.32 998.29 999.30 1000.07 1000.78 1001.58
1010.67 1010.23 1010.33 1009.84 1008.26 1007.59 1007.04 1006.50 1006.13 1005.64 1005.27 1004.41 1004.15 1004.02 1003.46 1003.43 1003.36 1002.32 1001.26 1000.89 1000.35 1000.05 999.37 998.76 997.79 996.74 996.26 995.52 995.53 995.83 994.44 993.80 993.20 993.48 993.65 994.95 996.01 997.05 997.88 998.76 999.72 1000.39 1001.10 1001.79
1010.97 1010.35 1009.35 1008.85 1007.90 1007.26 1006.49 1006.31 1005.85 1005.14 1004.89 1004.82 1004.76 1004.39 1003.28 1003.02 1002.56 1001.27 1000.73 1000.33 999.91 999.40 999.06 998.37 997.41 996.41 995.35 994.10 994.11 993.27 992.41 991.87 992.68 993.38 994.57 995.73 996.65 997.72 998.86 999.74 1000.58 1000.93 1001.24 1001.33
1009.98 1009.37 1009.00 1008.12 1007.68 1007.29 1006.32 1005.66 1005.54 1005.29 1004.98 1004.83 1004.75 1004.10 1002.97 1002.26 1001.77 1000.47 1000.15 999.59 999.08 998.33 998.48 997.78 996.54 995.98 995.50 994.57 993.31 993.29 992.53 992.71 993.52 994.32 995.09 996.10 997.01 998.02 998.80 999.90 1001.21 1001.72 1001.91 1001.76
Thickness
5608 5596 5591 5599 5601 5608 5608 5605 5604 5616 5631 5631 5633 5655 5662 5669 5674 5675 5683 5691 5697 5706 5724 5734 5742 5753 5763 5768 5766 5769 5776 5786 5786 5782 5783 5785 5790 5795 5793 5796 5797 5794 5788 5781
5589 5587 5603 5607 5605 5601 5603 5601 5598 5607 5618 5620 5620 5645 5655 5658 5664 5670 5672 5676 5684 5694 5707 5722 5732 5741 5749 5757 5761 5766 5772 5778 5784 5786 5784 5792 5795 5793 5798 5797 5793 5790 5790 5783
5580 5590 5602 5603 5598 5596 5595 5593 5591 5589 5603 5612 5613 5641 5644 5653 5657 5663 5664 5668 5673 5681 5686 5700 5714 5724 5733 5744 5753 5760 5766 5773 5779 5787 5782 5776 5782 5783 5782 5786 5788 5790 5783 5782
5581 5593 5591 5587 5589 5589 5582 5590 5586 5584 5581 5570 5599 5596 5641 5641 5638 5645 5650 5653 5653 5664 5671 5682 5695 5710 5718 5732 5744 5752 5757 5765 5775 5779 5777 5774 5780 5782 5787 5792 5788 5784 5783 5781
5571 5582 5578 5577 5580 5582 5572 5584 5577 5574 5564 5563 5573 5557 5633 5629 5626 5626 5629 5636 5640 5644 5655 5667 5679 5692 5707 5717 5729 5744 5750 5755 5768 5774 5777 5775 5772 5778 5780 5782 5777 5773 5775 5775
5569 5579 5577 5575 5577 5574 5573 5564 5556 5550 5542 5538 5557 5551 5597 5601 5611 5611 5613 5613 5621 5631 5642 5655 5668 5679 5695 5708 5716 5730 5740 5752 5759 5762 5771 5773 5774 5771 5768 5768 5765 5765 5766 5766
5564 5564 5569 5570 5559 5558 5551 5532 5512 5518 5526 5535 5552 5536 5583 5589 5598 5596 5589 5595 5604 5615 5626 5636 5648 5666 5682 5696 5710 5721 5734 5747 5756 5760 5766 5770 5773 5775 5768 5764 5763 5759 5756 5756
5538 5534 5556 5560 5553 5545 5546 5533 5495 5502 5517 5526 5543 5529 5560 5583 5581 5576 5575 5577 5586 5599 5614 5623 5635 5649 5664 5682 5700 5713 5730 5743 5753 5757 5762 5769 5776 5771 5764 5762 5760 5758 5757 5756
5533 5539 5557 5554 5550 5544 5538 5528 5529 5515 5513 5500 5518 5542 5556 5567 5566 5565 5563 5569 5571 5578 5589 5606 5624 5635 5649 5669 5689 5703 5722 5743 5750 5757 5761 5767 5768 5763 5760 5759 5756 5754 5753 5751
5534 5524 5546 5548 5546 5539 5538 5532 5509 5481 5503 5503 5519 5521 5534 5553 5554 5554 5553 5557 5564 5568 5575 5588 5605 5619 5639 5659 5678 5696 5721 5741 5753 5758 5757 5761 5765 5764 5758 5752 5747 5749 5746 5743
5526 5514 5529 5535 5528 5526 5517 5513 5500 5483 5471 5463 5494 5526 5539 5545 5547 5545 5547 5550 5550 5558 5568 5574 5589 5606 5623 5647 5663 5692 5715 5735 5746 5751 5753 5753 5757 5754 5750 5746 5745 5744 5742 5736
5523 5501 5503 5520 5529 5531 5523 5517 5503 5470 5486 5477 5473 5526 5543 5540 5541 5537 5537 5547 5547 5551 5558 5567 5576 5588 5603 5631 5661 5684 5712 5724 5740 5744 5748 5749 5750 5747 5743 5742 5740 5739 5734 5731
5517 5497 5498 5513 5522 5516 5521 5514 5509 5494 5484 5503 5483 5524 5535 5531 5533 5537 5538 5540 5543 5544 5551 5558 5567 5574 5594 5625 5646 5675 5700 5721 5730 5733 5740 5742 5740 5738 5738 5738 5737 5731 5727 5724
5519 5492 5504 5492 5513 5502 5507 5512 5510 5503 5489 5497 5507 5526 5531 5531 5530 5535 5532 5530 5532 5533 5539 5542 5552 5568 5586 5614 5635 5662 5691 5713 5725 5726 5731 5732 5734 5736 5735 5733 5730 5724 5722 5719
5504 5492 5491 5508 5515 5511 5512 5516 5519 5508 5512 5495 5523 5516 5535 5529 5523 5521 5527 5528 5528 5535 5531 5535 5544 5560 5585 5610 5628 5646 5677 5704 5711 5713 5720 5723 5725 5727 5726 5724 5721 5719 5717 5715
5488 5489 5491 5503 5509 5510 5515 5521 5521 5524 5524 5521 5521 5529 5531 5523 5515 5514 5518 5518 5523 5530 5533 5536 5543 5562 5581 5597 5612 5641 5668 5685 5695 5701 5709 5713 5717 5718 5719 5716 5715 5714 5712 5711
5480 5480 5482 5506 5511 5507 5507 5528 5530 5530 5528 5521 5516 5533 5527 5521 5515 5510 5512 5511 5519 5526 5526 5533 5536 5546 5556 5580 5609 5634 5655 5670 5688 5697 5702 5710 5710 5710 5709 5712 5712 5708 5707 5705
5481 5473 5475 5492 5495 5505 5532 5533 5529 5524 5524 5523 5524 5531 5527 5520 5515 5512 5507 5514 5520 5522 5527 5537 5547 5556 5572 5591 5619 5634 5651 5664 5676 5687 5698 5704 5705 5702 5703 5709 5706 5703 5702 5697
5492 5480 5488 5492 5470 5507 5527 5523 5515 5514 5526 5526 5525 5533 5531 5516 5511 5509 5509 5517 5522 5522 5527 5536 5547 5559 5575 5594 5613 5630 5639 5649 5662 5680 5687 5695 5696 5699 5701 5701 5698 5695 5694 5691
5490 5484 5484 5484 5480 5462 5493 5510 5508 5499 5507 5522 5515 5514 5519 5513 5500 5514 5514 5515 5525 5530 5532 5535 5548 5559 5573 5591 5608 5624 5636 5648 5655 5671 5679 5682 5684 5691 5694 5693 5691 5689 5688 5683
5487 5482 5486 5484 5479 5484 5510 5503 5495 5491 5505 5523 5522 5515 5508 5505 5507 5512 5513 5516 5522 5524 5530 5543 5550 5558 5576 5592 5607 5623 5636 5649 5658 5658 5658 5672 5677 5685 5689 5687 5685 5682 5678 5674
5485 5481 5478 5478 5480 5484 5502 5491 5485 5497 5513 5508 5510 5514 5506 5510 5505 5503 5514 5521 5525 5526 5538 5547 5553 5562 5579 5589 5602 5622 5626 5645 5672 5666 5660 5668 5682 5684 5683 5681 5676 5675 5672 5666
5482 5482 5479 5474 5484 5496 5490 5496 5498 5498 5503 5510 5502 5504 5502 5491 5491 5495 5511 5521 5523 5531 5538 5549 5555 5568 5584 5593 5604 5612 5620 5635 5640 5641 5664 5674 5679 5679 5678 5675 5671 5669 5665 5661
5482 5481 5465 5471 5498 5494 5497 5496 5499 5500 5497 5502 5495 5485 5491 5485 5483 5496 5512 5520 5531 5538 5545 5552 5564 5580 5589 5601 5603 5601 5620 5633 5647 5657 5671 5670 5671 5671 5671 5671 5668 5664 5660 5655
5467 5470 5474 5477 5488 5489 5498 5495 5494 5495 5489 5482 5477 5474 5485 5481 5486 5504 5513 5523 5533 5543 5548 5555 5569 5585 5599 5618 5612 5616 5631 5646 5656 5662 5665 5664 5665 5663 5660 5657 5656 5659 5657 5657
5472 5470 5475 5480 5483 5481 5489 5494 5485 5481 5478 5473 5469 5473 5482 5486 5489 5507 5514 5530 5541 5553 5553 5562 5580 5591 5602 5617 5624 5631 5646 5654 5656 5656 5662 5663 5663 5661 5662 5658 5648 5641 5641 5645